| time (UTC) | temp F | wind direction | speed MPH | gust MPH | rain 1hr in | rain 24hr in | rain mn in | humidity % | barometer mb |
| 20260831120804 | 51 | 57 | 5.0 | 5.0 | 0.00 | 1.23 | 0.02 | 92 | 1016.6 |
| 20260831115804 | 52 | 57 | 5.0 | 5.0 | 0.00 | 1.23 | 0.02 | 93 | 1016.6 |
| 20260831115306 | 52 | 57 | 5.0 | 5.0 | 0.00 | 1.23 | 0.02 | 93 | 1016.5 |
| 20260831114804 | 52 | 57 | 5.0 | 5.0 | 0.00 | 1.23 | 0.02 | 93 | 1016.6 |
| 20260831114304 | 52 | 57 | 5.0 | 5.0 | 0.00 | 1.23 | 0.02 | 93 | 1016.5 |
| 20260831113804 | 52 | 57 | 5.0 | 5.0 | 0.00 | 1.23 | 0.02 | 93 | 1016.4 |
| 20260831113304 | 52 | 57 | 5.0 | 5.0 | 0.00 | 1.23 | 0.02 | 93 | 1021.8 |
| 20260831112307 | 52 | 57 | 5.0 | 5.0 | 0.00 | 1.23 | 0.02 | 93 | 1016.4 |
| 20260831111304 | 51 | 57 | 5.0 | 5.0 | 0.00 | 1.23 | 0.02 | 96 | 1016.6 |
| 20260831110804 | 51 | 57 | 5.0 | 5.0 | 0.00 | 1.23 | 0.02 | 96 | 1016.5 |
| 20260831110304 | 51 | 57 | 5.0 | 5.0 | 0.00 | 1.23 | 0.02 | 96 | 1016.6 |
| 20260831105805 | 52 | 57 | 5.0 | 5.0 | 0.00 | 1.23 | 0.02 | 92 | 1027.8 |
| 20260831105306 | 52 | 57 | 5.0 | 5.0 | 0.00 | 1.23 | 0.02 | 92 | 1016.5 |
| 20260831104804 | 52 | 57 | 5.0 | 5.0 | 0.00 | 1.23 | 0.02 | 92 | 1027.0 |
| 20260831104304 | 52 | 57 | 5.0 | 5.0 | 0.00 | 1.23 | 0.02 | 92 | 1016.5 |
| 20260831103804 | 52 | 57 | 5.0 | 5.0 | 0.00 | 1.23 | 0.02 | 92 | 1016.3 |
| 20260831103304 | 52 | 57 | 5.0 | 5.0 | 0.00 | 1.23 | 0.02 | 92 | 1016.5 |
| 20260831102804 | 52 | 57 | 5.0 | 5.0 | 0.00 | 1.23 | 0.02 | 92 | 1016.5 |
| 20260831102306 | 52 | 57 | 5.0 | 5.0 | 0.00 | 1.23 | 0.02 | 92 | 1016.6 |
| 20260831101804 | 52 | 57 | 5.0 | 5.0 | 0.00 | 1.23 | 0.02 | 92 | 1016.4 |
| 20260831101304 | 52 | 57 | 5.0 | 5.0 | 0.00 | 1.23 | 0.02 | 92 | 1016.7 |
| 20260831100804 | 52 | 57 | 5.0 | 5.0 | 0.00 | 1.23 | 0.02 | 92 | 1016.7 |
| 20260831095804 | 52 | 57 | 5.0 | 5.0 | 0.00 | 1.23 | 0.02 | 92 | 1016.6 |
| 20260831094804 | 52 | 57 | 5.0 | 5.0 | 0.00 | 1.23 | 0.02 | 92 | 1016.5 |
| 20260831094304 | 52 | 57 | 5.0 | 5.0 | 0.00 | 1.23 | 0.02 | 92 | 1016.4 |
| 20260831093304 | 52 | 57 | 5.0 | 5.0 | 0.00 | 1.23 | 0.02 | 92 | 1016.3 |
| 20260831092804 | 52 | 57 | 5.0 | 5.0 | 0.00 | 1.23 | 0.02 | 92 | 1016.5 |
| 20260831092306 | 45 | 57 | 5.0 | 5.0 | 0.00 | 1.23 | 0.02 | 92 | 1027.2 |
| 20260831091304 | 45 | 57 | 5.0 | 5.0 | 0.00 | 1.23 | 0.02 | 92 | 1020.7 |
| 20260831085804 | 46 | 57 | 5.0 | 5.0 | 0.00 | 1.23 | 0.02 | 92 | 1016.4 |
| 20260831085306 | 45 | 57 | 5.0 | 5.0 | 0.00 | 1.23 | 0.02 | 92 | 1016.4 |
| 20260831084804 | 45 | 57 | 5.0 | 5.0 | 0.00 | 1.23 | 0.02 | 92 | 1016.4 |
| 20260831084304 | 45 | 57 | 5.0 | 5.0 | 0.00 | 1.23 | 0.02 | 92 | 1016.4 |
| 20260831083804 | 46 | 57 | 5.0 | 5.0 | 0.00 | 1.23 | 0.02 | 92 | 1016.6 |
| 20260831083303 | 45 | 57 | 5.0 | 5.0 | 0.00 | 1.23 | 0.02 | 92 | 1016.5 |
| 20260831082306 | 46 | 75 | 1.0 | 3.0 | 0.00 | 1.23 | 0.02 | 91 | 1016.5 |
| 20260831081804 | 46 | 75 | 1.0 | 3.0 | 0.00 | 1.23 | 0.02 | 91 | 1027.8 |
| 20260831081306 | 46 | 75 | 1.0 | 3.0 | 0.00 | 1.23 | 0.02 | 91 | 1016.8 |
| 20260831080806 | 46 | 75 | 1.0 | 3.0 | 0.00 | 1.23 | 0.02 | 91 | 1016.7 |
| 20260831075805 | 46 | 75 | 1.0 | 3.0 | 0.00 | 1.24 | 0.02 | 91 | 1016.8 |
| 20260831075307 | 46 | 75 | 1.0 | 3.0 | 0.00 | 1.24 | 0.02 | 91 | 1016.8 |
| 20260831074806 | 46 | 75 | 1.0 | 3.0 | 0.00 | 1.24 | 0.02 | 91 | 1016.9 |
| 20260831074305 | 46 | 75 | 3.0 | 7.0 | 0.00 | 1.24 | 0.02 | 91 | 1016.8 |
| 20260831073805 | 52 | 79 | 7.0 | 7.0 | 0.00 | 1.24 | 0.02 | 96 | 1016.7 |
| 20260831073306 | 52 | 79 | 7.0 | 7.0 | 0.00 | 1.24 | 0.02 | 96 | 1027.4 |
| 20260831072805 | 52 | 79 | 7.0 | 7.0 | 0.00 | 1.24 | 0.02 | 96 | 1016.9 |
| 20260831072306 | 52 | 79 | 7.0 | 7.0 | 0.00 | 1.24 | 0.02 | 96 | 1016.8 |
| 20260831071805 | 52 | 79 | 7.0 | 7.0 | 0.00 | 1.24 | 0.02 | 96 | 1016.9 |
| 20260831071306 | 52 | 79 | 7.0 | 7.0 | 0.00 | 1.24 | 0.02 | 96 | 1016.9 |
| 20260831070305 | 52 | 79 | 7.0 | 7.0 | 0.00 | 1.24 | 0.02 | 96 | 1017.0 |
| 20260831065805 | 53 | 79 | 7.0 | 7.0 | 0.00 | 1.25 | 0.02 | 96 | 1016.8 |
| 20260831065306 | 53 | 79 | 7.0 | 7.0 | 0.00 | 1.25 | 0.02 | 96 | 1016.8 |
| 20260831064805 | 53 | 79 | 7.0 | 7.0 | 0.00 | 1.25 | 0.02 | 96 | 1026.3 |
| 20260831064305 | 53 | 79 | 7.0 | 7.0 | 0.00 | 1.25 | 0.02 | 96 | 1016.8 |
| 20260831063305 | 53 | 79 | 7.0 | 7.0 | 0.02 | 1.25 | 0.02 | 96 | 1017.0 |
| 20260831062806 | 53 | 79 | 7.0 | 7.0 | 0.02 | 1.25 | 0.02 | 96 | 1023.0 |
| 20260831062306 | 53 | 79 | 7.0 | 7.0 | 0.02 | 1.25 | 0.02 | 96 | 1016.9 |
| 20260831061806 | 53 | 79 | 7.0 | 7.0 | 0.02 | 1.25 | 0.02 | 96 | 1017.1 |
| 20260831061305 | 53 | 79 | 7.0 | 7.0 | 0.02 | 1.25 | 0.02 | 96 | 1017.0 |
| 20260831060806 | 53 | 79 | 7.0 | 7.0 | 0.02 | 1.25 | 0.02 | 96 | 1017.4 |
| 20260831055805 | 54 | 79 | 7.0 | 7.0 | 0.02 | 1.25 | 0.02 | 89 | 1017.2 |
| 20260831055306 | 54 | 79 | 7.0 | 7.0 | 0.02 | 1.25 | 0.02 | 89 | 1017.1 |
| 20260831054805 | 54 | 79 | 7.0 | 7.0 | 0.02 | 1.25 | 0.02 | 89 | 1017.2 |
| 20260831054305 | 54 | 79 | 7.0 | 7.0 | 0.02 | 1.25 | 0.02 | 89 | 1017.1 |
| 20260831053805 | 54 | 79 | 7.0 | 7.0 | 0.00 | 1.23 | 0.00 | 89 | 1017.3 |
| 20260831053305 | 54 | 79 | 7.0 | 7.0 | 0.00 | 1.23 | 0.00 | 89 | 1017.3 |
| 20260831052806 | 49 | 79 | 7.0 | 7.0 | 0.00 | 1.23 | 0.00 | 89 | 1017.3 |
| 20260831052307 | 49 | 79 | 7.0 | 7.0 | 0.00 | 1.23 | 0.00 | 94 | 1017.3 |
| 20260831051805 | 49 | 79 | 7.0 | 7.0 | 0.00 | 1.23 | 0.00 | 93 | 1017.3 |
| 20260831051305 | 49 | 79 | 7.0 | 7.0 | 0.00 | 1.23 | 0.00 | 94 | 1017.5 |
| 20260831050805 | 49 | 79 | 7.0 | 7.0 | 0.00 | 1.23 | 0.00 | 93 | 1017.6 |
| 20260831050305 | 49 | 79 | 7.0 | 7.0 | 0.00 | 1.23 | 0.00 | 93 | 1017.7 |
| 20260831045805 | 50 | 79 | 7.0 | 7.0 | 0.08 | 1.23 | 1.23 | 94 | 1017.8 |
| 20260831045306 | 51 | 79 | 7.0 | 7.0 | 0.08 | 1.23 | 1.23 | 94 | 1017.6 |
| 20260831044806 | 50 | 79 | 7.0 | 7.0 | 0.08 | 1.23 | 1.23 | 94 | 1017.8 |
| 20260831044305 | 51 | 79 | 7.0 | 7.0 | 0.08 | 1.23 | 1.23 | 94 | 1017.7 |
| 20260831043806 | 50 | 79 | 7.0 | 7.0 | 0.08 | 1.23 | 1.23 | 94 | 1028.9 |
| 20260831043305 | 51 | 79 | 7.0 | 7.0 | 0.08 | 1.23 | 1.23 | 94 | 1017.6 |
| 20260831042805 | 50 | 81 | 4.0 | 7.0 | 0.08 | 1.23 | 1.23 | 94 | 1017.4 |
| 20260831042307 | 55 | 138 | 2.0 | 5.0 | 0.08 | 1.23 | 1.23 | 93 | 1017.5 |
| 20260831041305 | 55 | 138 | 2.0 | 5.0 | 0.11 | 1.23 | 1.23 | 93 | 1018.0 |
| 20260831040805 | 55 | 138 | 2.0 | 5.0 | 0.14 | 1.23 | 1.23 | 93 | 1017.9 |
| 20260831040305 | 55 | 138 | 2.0 | 5.0 | 0.16 | 1.23 | 1.23 | 93 | 1027.9 |
| 20260831035806 | 55 | 138 | 2.0 | 5.0 | 0.10 | 1.15 | 1.15 | 86 | 1018.0 |
| 20260831035306 | 55 | 138 | 2.0 | 5.0 | 0.10 | 1.15 | 1.15 | 86 | 1018.0 |
| 20260831034805 | 55 | 138 | 2.0 | 5.0 | 0.10 | 1.15 | 1.15 | 86 | 1018.3 |
| 20260831034306 | 55 | 138 | 2.0 | 5.0 | 0.10 | 1.15 | 1.15 | 86 | 1018.7 |
| 20260831033805 | 55 | 138 | 2.0 | 5.0 | 0.10 | 1.15 | 1.15 | 86 | 1018.7 |
| 20260831032805 | 55 | 138 | 2.0 | 5.0 | 0.10 | 1.15 | 1.15 | 87 | 1027.7 |
| 20260831032306 | 55 | 138 | 2.0 | 5.0 | 0.10 | 1.15 | 1.15 | 86 | 1018.4 |
| 20260831031805 | 55 | 138 | 2.0 | 5.0 | 0.07 | 1.12 | 1.12 | 87 | 1025.0 |
| 20260831031305 | 55 | 138 | 2.0 | 5.0 | 0.07 | 1.12 | 1.12 | 86 | 1018.3 |
| 20260831030805 | 55 | 138 | 2.0 | 5.0 | 0.04 | 1.09 | 1.09 | 87 | 1018.0 |
| 20260831030305 | 55 | 138 | 2.0 | 5.0 | 0.02 | 1.07 | 1.07 | 86 | 1017.7 |
| 20260831025306 | 63 | 73 | 3.0 | 5.0 | 0.01 | 1.05 | 1.05 | 72 | 1016.8 |
| 20260831024305 | 63 | 73 | 3.0 | 5.0 | 0.01 | 1.05 | 1.05 | 72 | 1016.3 |
| 20260831023805 | 63 | 73 | 3.0 | 5.0 | 0.01 | 1.05 | 1.05 | 72 | 1016.3 |
| 20260831023306 | 63 | 73 | 3.0 | 5.0 | 0.01 | 1.05 | 1.05 | 72 | 1016.0 |
| 20260831022805 | 57 | 73 | 3.0 | 5.0 | 0.01 | 1.05 | 1.05 | 82 | 1016.0 |
| 20260831022306 | 58 | 73 | 3.0 | 5.0 | 0.01 | 1.05 | 1.05 | 73 | 1025.5 |
| 20260831021805 | 57 | 73 | 3.0 | 5.0 | 0.01 | 1.05 | 1.05 | 82 | 1015.8 |
| 20260831021305 | 58 | 73 | 3.0 | 5.0 | 0.01 | 1.05 | 1.05 | 76 | 1022.0 |
| 20260831020805 | 57 | 73 | 3.0 | 5.0 | 0.01 | 1.05 | 1.05 | 82 | 1016.0 |
| 20260831020306 | 58 | 73 | 3.0 | 5.0 | 0.01 | 1.05 | 1.05 | 82 | 1015.9 |
| 20260831015805 | 57 | 73 | 3.0 | 5.0 | 0.00 | 1.05 | 1.04 | 82 | 1015.8 |
| 20260831015306 | 58 | 73 | 3.0 | 5.0 | 0.00 | 1.05 | 1.04 | 82 | 1016.0 |
| 20260831014306 | 58 | 73 | 3.0 | 5.0 | 0.00 | 1.05 | 1.04 | 82 | 1015.7 |
| 20260831013805 | 57 | 73 | 3.0 | 5.0 | 0.00 | 1.05 | 1.04 | 82 | 1015.8 |
| 20260831013305 | 58 | 73 | 3.0 | 5.0 | 0.00 | 1.05 | 1.04 | 82 | 1015.8 |
| 20260831012805 | 57 | 68 | 1.0 | 5.0 | 0.00 | 1.05 | 1.04 | 82 | 1015.8 |
| 20260831012306 | 59 | 66 | 1.0 | 5.0 | 0.00 | 1.05 | 1.04 | 76 | 1015.8 |
| 20260831011806 | 58 | 66 | 1.0 | 5.0 | 0.00 | 1.05 | 1.04 | 69 | 1015.8 |
| 20260831011305 | 59 | 66 | 1.0 | 5.0 | 0.00 | 1.05 | 1.04 | 76 | 1015.9 |
| 20260831010804 | 58 | 66 | 1.0 | 5.0 | 0.00 | 1.05 | 1.04 | 76 | 1020.4 |
| 20260831005804 | 66 | 66 | 1.0 | 5.0 | 0.00 | 1.06 | 1.04 | 76 | 1015.8 |
| 20260831005306 | 66 | 66 | 1.0 | 5.0 | 0.00 | 1.06 | 1.04 | 59 | 1015.7 |
| 20260831004305 | 66 | 66 | 1.0 | 5.0 | 0.00 | 1.06 | 1.04 | 76 | 1024.6 |
| 20260831003805 | 66 | 66 | 1.0 | 5.0 | 0.00 | 1.06 | 1.04 | 76 | 1015.8 |
| 20260831003304 | 66 | 66 | 1.0 | 5.0 | 0.00 | 1.06 | 1.04 | 76 | 1019.9 |
| 20260831002806 | 58 | 75 | 3.0 | 5.0 | 0.00 | 1.06 | 1.04 | 76 | 1015.9 |
| 20260831002306 | 66 | 58 | 3.0 | 5.0 | 0.00 | 1.06 | 1.04 | 77 | 1015.7 |
| 20260831001806 | 66 | 58 | 3.0 | 5.0 | 0.00 | 1.06 | 1.04 | 61 | 1015.7 |
| 20260831001304 | 66 | 58 | 3.0 | 5.0 | 0.00 | 1.06 | 1.04 | 77 | 1019.2 |
| 20260831000305 | 66 | 58 | 3.0 | 5.0 | 0.00 | 1.06 | 1.04 | 77 | 1019.0 |
| 20260830235805 | 60 | 65 | 3.0 | 5.0 | 0.00 | 1.06 | 1.04 | 61 | 1015.9 |
| 20260830235306 | 60 | 65 | 3.0 | 5.0 | 0.00 | 1.06 | 1.04 | 73 | 1015.6 |
| 20260830234805 | 61 | 63 | 5.0 | 6.0 | 0.00 | 1.06 | 1.04 | 64 | 1015.7 |
| 20260830234305 | 61 | 62 | 4.0 | 6.0 | 0.00 | 1.06 | 1.04 | 66 | 1025.1 |
| 20260830233804 | 63 | 63 | 2.0 | 5.0 | 0.00 | 1.06 | 1.04 | 61 | 1015.8 |
| 20260830232805 | 62 | 61 | 4.0 | 6.0 | 0.00 | 1.06 | 1.04 | 63 | 1016.1 |
| 20260830232306 | 61 | 64 | 4.0 | 6.0 | 0.00 | 1.06 | 1.04 | 69 | 1015.9 |
| 20260830230806 | 60 | 46 | 3.0 | 5.0 | 0.00 | 1.06 | 1.04 | 70 | 1024.4 |
| 20260830225805 | 59 | 67 | 5.0 | 8.0 | 0.00 | 1.06 | 1.04 | 73 | 1025.2 |
| 20260830225305 | 58 | 78 | 3.0 | 6.0 | 0.00 | 1.06 | 1.04 | 74 | 1016.0 |
| 20260830224804 | 59 | 53 | 3.0 | 5.0 | 0.00 | 1.06 | 1.04 | 74 | 1025.0 |
| 20260830224305 | 59 | 65 | 3.0 | 5.0 | 0.00 | 1.06 | 1.04 | 73 | 1016.2 |
| 20260830223805 | 59 | 46 | 3.0 | 6.0 | 0.00 | 1.06 | 1.04 | 72 | 1026.2 |
| 20260830223306 | 58 | 64 | 4.0 | 9.0 | 0.00 | 1.06 | 1.04 | 73 | 1016.1 |
| 20260830222804 | 59 | 71 | 6.0 | 9.0 | 0.00 | 1.06 | 1.04 | 72 | 1016.0 |
| 20260830221804 | 58 | 63 | 5.0 | 7.0 | 0.00 | 1.06 | 1.04 | 80 | 1016.2 |
| 20260830221304 | 57 | 57 | 5.0 | 7.0 | 0.00 | 1.06 | 1.04 | 82 | 1026.1 |
| 20260830220804 | 58 | 50 | 2.0 | 7.0 | 0.00 | 1.06 | 1.04 | 85 | 1016.4 |
| 20260830220305 | 56 | 35 | 4.0 | 7.0 | 0.00 | 1.06 | 1.04 | 85 | 1016.8 |
| 20260830215805 | 57 | 69 | 5.0 | 7.0 | 0.06 | 1.06 | 1.04 | 84 | 1016.7 |
| 20260830215306 | 55 | 46 | 3.0 | 6.0 | 0.06 | 1.06 | 1.04 | 87 | 1017.0 |
| 20260830214805 | 55 | 52 | 4.0 | 6.0 | 0.07 | 1.06 | 1.04 | 88 | 1022.8 |
| 20260830214305 | 54 | 56 | 2.0 | 6.0 | 0.09 | 1.06 | 1.04 | 89 | 1017.3 |
| 20260830212306 | 53 | 81 | 3.0 | 6.0 | 0.14 | 1.06 | 1.04 | 89 | 1017.8 |
| 20260830211804 | 54 | 227 | 1.0 | 5.0 | 0.16 | 1.06 | 1.04 | 88 | 1017.8 |
| 20260830211305 | 52 | 63 | 2.0 | 3.0 | 0.18 | 1.06 | 1.04 | 89 | 1017.9 |
| 20260830205306 | 52 | 20 | 3.0 | 7.0 | 0.25 | 1.00 | 0.98 | 92 | 1017.8 |
| 20260830204805 | 52 | 59 | 4.0 | 7.0 | 0.24 | 0.99 | 0.97 | 92 | 1017.7 |
| 20260830203804 | 52 | 200 | 3.0 | 9.0 | 0.20 | 0.95 | 0.93 | 91 | 1018.3 |
| 20260830201804 | 52 | 158 | 1.0 | 5.0 | 0.15 | 0.90 | 0.88 | 90 | 1017.9 |
| 20260830201305 | 53 | 210 | 1.0 | 5.0 | 0.15 | 0.88 | 0.86 | 90 | 1017.8 |
| 20260830200805 | 53 | 75 | 2.0 | 5.0 | 0.14 | 0.87 | 0.84 | 88 | 1026.3 |
| 20260830195804 | 54 | 253 | 5.0 | 14.0 | 0.32 | 0.79 | 0.75 | 85 | 1024.3 |
| 20260830194805 | 54 | 51 | 3.0 | 14.0 | 0.58 | 0.77 | 0.73 | 78 | 1018.0 |
| 20260830193804 | 54 | 174 | 2.0 | 6.0 | 0.58 | 0.77 | 0.73 | 81 | 1017.4 |
| 20260830193305 | 53 | 39 | 3.0 | 10.0 | 0.58 | 0.77 | 0.73 | 81 | 1027.4 |
| 20260830192804 | 54 | 237 | 4.0 | 10.0 | 0.58 | 0.77 | 0.73 | 82 | 1017.7 |
| 20260830192305 | 53 | 358 | 4.0 | 14.0 | 0.58 | 0.77 | 0.73 | 79 | 1017.5 |
| 20260830191805 | 55 | 58 | 5.0 | 14.0 | 0.58 | 0.77 | 0.73 | 79 | 1017.7 |
| 20260830191305 | 55 | 58 | 9.0 | 22.0 | 0.56 | 0.75 | 0.71 | 83 | 1017.3 |
| 20260830190804 | 55 | 77 | 12.0 | 31.0 | 0.55 | 0.74 | 0.70 | 77 | 1027.1 |
| 20260830185807 | 59 | 0 | 7.0 | 23.0 | 0.28 | 0.47 | 0.43 | 65 | 1022.0 |
| 20260830185306 | 65 | 242 | 5.0 | 12.0 | 0.26 | 0.45 | 0.41 | 60 | 1015.3 |
| 20260830184304 | 66 | 76 | 3.0 | 9.0 | 0.03 | 0.19 | 0.15 | 64 | 1013.9 |
| 20260830183805 | 66 | 47 | 3.0 | 5.0 | 0.03 | 0.19 | 0.15 | 63 | 1013.9 |
| 20260830183304 | 66 | 57 | 2.0 | 6.0 | 0.03 | 0.19 | 0.15 | 70 | 1013.9 |
| 20260830182306 | 66 | 43 | 1.0 | 2.0 | 0.03 | 0.19 | 0.15 | 73 | 1014.3 |
| 20260830181805 | 66 | 188 | 2.0 | 2.0 | 0.03 | 0.19 | 0.15 | 75 | 1014.3 |
| 20260830181304 | 66 | 213 | 2.0 | 3.0 | 0.03 | 0.19 | 0.15 | 67 | 1014.2 |
| 20260830180804 | 66 | 229 | 1.0 | 3.0 | 0.03 | 0.19 | 0.15 | 63 | 1014.4 |
| 20260830180304 | 66 | 174 | 3.0 | 5.0 | 0.03 | 0.19 | 0.15 | 73 | 1014.5 |
| 20260830175804 | 63 | 132 | 2.0 | 3.0 | 0.03 | 0.19 | 0.15 | 70 | 1014.7 |
| 20260830175306 | 63 | 153 | 1.0 | 9.0 | 0.03 | 0.19 | 0.15 | 69 | 1014.9 |
| 20260830174304 | 64 | 211 | 1.0 | 3.0 | 0.00 | 0.16 | 0.12 | 71 | 1025.4 |
| 20260830173804 | 64 | 294 | 0.0 | 5.0 | 0.00 | 0.16 | 0.12 | 55 | 1014.6 |
| 20260830172805 | 65 | 226 | 1.0 | 8.0 | 0.00 | 0.16 | 0.12 | 57 | 1014.8 |
| 20260830172306 | 63 | 195 | 2.0 | 6.0 | 0.00 | 0.16 | 0.12 | 68 | 1023.0 |
| 20260830171804 | 64 | 32 | 5.0 | 6.0 | 0.00 | 0.16 | 0.12 | 57 | 1015.0 |
| 20260830171304 | 65 | 162 | 2.0 | 5.0 | 0.00 | 0.16 | 0.12 | 57 | 1014.9 |
| 20260830170804 | 63 | 110 | 2.0 | 5.0 | 0.00 | 0.16 | 0.12 | 58 | 1014.9 |
| 20260830170305 | 63 | 69 | 4.0 | 6.0 | 0.00 | 0.16 | 0.12 | 59 | 1014.9 |
| 20260830165804 | 63 | 44 | 2.0 | 3.0 | 0.01 | 0.16 | 0.12 | 76 | 1025.5 |
| 20260830165306 | 61 | 147 | 1.0 | 5.0 | 0.01 | 0.16 | 0.12 | 62 | 1014.9 |
| 20260830163304 | 59 | 133 | 3.0 | 5.0 | 0.01 | 0.16 | 0.12 | 68 | 1015.1 |
| 20260830162804 | 59 | 140 | 3.0 | 5.0 | 0.01 | 0.16 | 0.12 | 68 | 1015.6 |
| 20260830162306 | 58 | 117 | 2.0 | 6.0 | 0.01 | 0.16 | 0.12 | 80 | 1023.7 |
| 20260830161805 | 58 | 215 | 2.0 | 6.0 | 0.01 | 0.16 | 0.12 | 70 | 1015.4 |
| 20260830160805 | 58 | 148 | 4.0 | 8.0 | 0.01 | 0.16 | 0.12 | 70 | 1015.4 |
| 20260830160304 | 58 | 194 | 5.0 | 7.0 | 0.01 | 0.16 | 0.12 | 80 | 1023.6 |
| 20260830155805 | 57 | 224 | 4.0 | 7.0 | 0.04 | 0.15 | 0.11 | 72 | 1015.5 |
| 20260830154804 | 57 | 146 | 3.0 | 8.0 | 0.04 | 0.15 | 0.11 | 73 | 1015.4 |
| 20260830154305 | 57 | 214 | 3.0 | 9.0 | 0.04 | 0.15 | 0.11 | 82 | 1021.7 |
| 20260830153805 | 57 | 164 | 5.0 | 9.0 | 0.04 | 0.15 | 0.11 | 73 | 1015.8 |
| 20260830153305 | 56 | 168 | 2.0 | 6.0 | 0.04 | 0.15 | 0.11 | 73 | 1015.5 |
| 20260830152805 | 56 | 44 | 2.0 | 7.0 | 0.04 | 0.15 | 0.11 | 74 | 1015.6 |
| 20260830152306 | 55 | 54 | 3.0 | 5.0 | 0.04 | 0.15 | 0.11 | 74 | 1015.8 |
| 20260830151804 | 55 | 53 | 3.0 | 8.0 | 0.04 | 0.15 | 0.11 | 75 | 1015.6 |
| 20260830151304 | 54 | 31 | 6.0 | 9.0 | 0.04 | 0.15 | 0.11 | 78 | 1015.9 |
| 20260830150805 | 54 | 56 | 5.0 | 9.0 | 0.04 | 0.15 | 0.11 | 82 | 1015.9 |
| 20260830145805 | 53 | 86 | 5.0 | 7.0 | 0.04 | 0.11 | 0.07 | 82 | 1016.1 |
| 20260830145306 | 52 | 148 | 1.0 | 5.0 | 0.04 | 0.11 | 0.07 | 94 | 1016.1 |
| 20260830144804 | 52 | 72 | 2.0 | 5.0 | 0.04 | 0.11 | 0.07 | 82 | 1016.1 |
| 20260830144307 | 52 | 62 | 3.0 | 6.0 | 0.04 | 0.11 | 0.07 | 93 | 1016.1 |
| 20260830143804 | 51 | 60 | 5.0 | 6.0 | 0.04 | 0.11 | 0.07 | 82 | 1016.1 |
| 20260830143305 | 52 | 69 | 5.0 | 6.0 | 0.04 | 0.11 | 0.07 | 94 | 1016.4 |
| 20260830142804 | 52 | 67 | 1.0 | 3.0 | 0.04 | 0.11 | 0.07 | 81 | 1016.3 |
| 20260830142306 | 51 | 144 | 1.0 | 3.0 | 0.04 | 0.11 | 0.07 | 89 | 1016.5 |
| 20260830141804 | 51 | 133 | 2.0 | 3.0 | 0.04 | 0.11 | 0.07 | 82 | 1016.6 |
| 20260830141304 | 51 | 202 | 2.0 | 5.0 | 0.04 | 0.11 | 0.07 | 82 | 1025.0 |
| 20260830140804 | 51 | 124 | 3.0 | 6.0 | 0.04 | 0.11 | 0.07 | 83 | 1016.6 |
| 20260830140305 | 51 | 54 | 2.0 | 5.0 | 0.04 | 0.11 | 0.07 | 83 | 1026.2 |
| 20260830135804 | 50 | 130 | 1.0 | 7.0 | 0.01 | 0.07 | 0.03 | 84 | 1016.8 |
| 20260830135306 | 50 | 242 | 2.0 | 8.0 | 0.01 | 0.07 | 0.03 | 84 | 1022.3 |
| 20260830134304 | 50 | 135 | 3.0 | 7.0 | 0.01 | 0.07 | 0.03 | 85 | 1016.4 |
| 20260830133804 | 50 | 226 | 2.0 | 6.0 | 0.01 | 0.07 | 0.03 | 99 | 1016.4 |
| 20260830132804 | 49 | 169 | 1.0 | 6.0 | 0.01 | 0.07 | 0.03 | 85 | 1016.0 |
| 20260830132306 | 50 | 150 | 3.0 | 9.0 | 0.01 | 0.07 | 0.03 | 85 | 1015.8 |
| 20260830131805 | 50 | 176 | 2.0 | 5.0 | 0.01 | 0.07 | 0.03 | 85 | 1015.7 |
| 20260830130804 | 50 | 169 | 2.0 | 6.0 | 0.01 | 0.07 | 0.03 | 84 | 1026.5 |
| 20260830130303 | 50 | 170 | 1.0 | 3.0 | 0.01 | 0.07 | 0.03 | 84 | 1015.4 |
| 20260830125804 | 50 | 239 | 1.0 | 3.0 | 0.00 | 0.06 | 0.02 | 84 | 1015.3 |
| 20260830125306 | 51 | 179 | 1.0 | 3.0 | 0.00 | 0.06 | 0.02 | 83 | 1015.2 |
| 20260830124805 | 50 | 105 | 2.0 | 2.0 | 0.00 | 0.06 | 0.02 | 84 | 1015.2 |
| 20260830124305 | 50 | 10 | 1.0 | 3.0 | 0.00 | 0.06 | 0.02 | 85 | 1015.1 |
| 20260830123805 | 49 | 138 | 1.0 | 3.0 | 0.00 | 0.06 | 0.02 | 85 | 1015.3 |
| 20260830123304 | 49 | 144 | 2.0 | 3.0 | 0.00 | 0.06 | 0.02 | 85 | 1015.2 |
| 20260830122804 | 49 | 135 | 2.0 | 3.0 | 0.00 | 0.06 | 0.02 | 85 | 1015.1 |
| 20260830122306 | 50 | 181 | 2.0 | 3.0 | 0.00 | 0.06 | 0.02 | 84 | 1015.3 |
| 20260830121805 | 50 | 177 | 2.0 | 2.0 | 0.00 | 0.06 | 0.02 | 84 | 1015.1 |
| 20260830121304 | 50 | 181 | 0.0 | 2.0 | 0.00 | 0.06 | 0.02 | 84 | 1015.0 |